Погода Верещагино

Погода Верещагино : погода сейчас, прогноз погоды и архив. Всё, что Вы хотите узнать о погоде Верещагино!

Поиск расширенной информации на нашем сайте:

Другие новости

Новости СМИ2

Главная страница сайта

Новости сайта

03.07.2017

Напоминаем, что на нашем специализированном сайте Метеоцентр.Азия вы можете получить высокодетализированные автоматические прогнозы погоды по пунктам России, СНГ и мира в авиационном формате (включающие направление и скорость ветра, видимость, явления погоды, количество и форму облачности, нижнюю и верхнюю границу облачности).


Погода Верещагино - сегодня

Время (UTC), дата Ветер
(°,м/с) 
Видим.   Явления Облачность Т
(°С)
Тd
(°С)
f(%) Тe
(°С)
Pmin
(гПа)
dP
(гПа)
Po
(мм)
O2
(г/м3)
Тmin Tmax R s Состояние
почвы
00 16.04.18 230 (ЮЗ) 20000 м  {снег}  10/10 600 м кучево-дожд. 
[Cb cap]
-6.8 -8 91 -8  992.4  1.3  741  307  -7.1    0.6  101  равномерный
сухой снег
100% 
03 16.04.18 200 (Ю) 10 км  слаб. ливневой снег  10/10 600 м кучево-дожд. 
[Cb cap]
-5.2 -8.1 80 -5  993.2  0.8  742  306           
06 16.04.18 240 (ЮЗ) 20000 м  в посл. час ливневой снег  10/10 600 м кучево-дожд. 
[Cb cap]
-3.8 -8.3 71 -3  995  1.8  743  305           
09 16.04.18 240 (ЮЗ) 20000 м  {ливн. осадки}  10/10 600 м кучево-дожд. 
[Cb cap]
-2.6 -8.3 65 -4  996.8  1.8  745  304           
12 16.04.18 220 (ЮЗ) 20000 м  {ливн. осадки}  8/8 600 м кучево-дожд. 
[Cb cap]
-3.3 -9.7 61 -3  998.4  1.6  746  305    -2.5  0.4     
15 16.04.18 340 (С) н/о    10/5 600 м верхняя 
[Sc|Cs]
-6.2 -11.6 66 -6  999.4  0.9  747  309           
18 16.04.18 340 (С) н/о    8/0 верхняя 
[Cs]
-10.7 -15.1 70 -11  999.3  -0.1  747  314           
00 17.04.18 360 (С) 20000 м    10/0 верхняя 
[Cs]
-15.6 -19 75 -19  999.1  746  320  -15.8      101  равномерный
сухой снег
100% 
03 17.04.18 360 (С) 20000 м    8/0 верхняя 
[Cs]
-13.7 -18 70 -17  998.6  -0.5  746  318           
06 17.04.18 360 (С) 20000 м    8/0 верхняя 
[Cs]
-7.9 -13 67 -12  998.3  -0.2  746  311           
09 17.04.18 360 (С) 20000 м    3/0 верхняя 
[Ci fib]
-6 -12.8 59 -10  998.9  0.6  746  309           
12 17.04.18 290 (З) 20000 м    1/0 верхняя 
[Ci fib]
-6.8 -14.7 53 -10  1000.9  748  310    -5.8       
15 17.04.18 340 (С) н/о    ясно 
-9.9 -16.4 59 -14  1003.2  2.3  749  315           
18 17.04.18 330 (СЗ) н/о  слаб. снег  10/0 верхняя 
[Cs]
-12.4 -17.6 65 -17  1005.2  751  318           
21 17.04.18 310 (СЗ) н/о  слаб. снег  10/0 верхняя 
[Cs]
-16.5 -21.5 65 -17  1007.5  2.2  753  324           
00 18.04.18 260 (З) 10 км  слаб. снег  10/4 300 м средняя 
[Frnb|As op]
-17.9 -22 70 -18  1009.9  2.3  754  327  -18    0.3  100  равномерный
сухой снег
100% 
03 18.04.18 260 (З) 10 км  слаб. снег  10/3 600 м средняя 
[Sc|Ac As]
-15.1 -20.2 65 -15  1011.7  1.8  756  324           
06 18.04.18 280 (З) 20000 м  {снег}  3/0 верхняя 
[Ci fib]
-10.4 -18.8 50 -10  1012.9  1.3  757  318           
09 18.04.18 200 (Ю) 20000 м    4/4 600 м 
[Cu med, cong]
-7.7 -19.1 40 -7  1013.6  0.7  757  315           
12 18.04.18 260 (З) 20000 м    5/5 600 м 
[Cu med, cong]
-8 -17.4 47 -8  1014.1  0.5  758  316    -7.7  0.2     
15 18.04.18 200 (Ю) н/о    10/0 средняя, верхняя 
[Ac As|Cs]
-10.4 -18.8 50 -10  1014.2  0.1  758  319           
18 18.04.18 190 (Ю) н/о    10/0 верхняя 
[Cs]
-12.1 -19.3 55 -15  1014  -0.2  758  321           
21 18.04.18 180 (Ю) н/о    10/0 средняя, верхняя 
[Ac As|Cs]
-14.3 -20.4 60 -16  1013.4  -0.7  757  323           
00 19.04.18 150 (ЮВ) 20000 м    3/0 верхняя 
[Ci fib]
-16.5 -21.5 65 -17  1012.7  -0.7  756  326  -17      100  равномерный
сухой снег
100% 
03 19.04.18 180 (Ю) 20000 м    10/0 верхняя 
[Cs]
-12.2 -18.4 60 -18  1011.6  -1  756  320           
Время (UTC), дата Ветер
(°,м/с) 
Видим.   Явления Облачность Т
(°С)
Тd
(°С)
f(%) Тe
(°С)
Pmin
(гПа)
dP
(гПа)
Po
(мм)
O2
(г/м3)
Тmin Tmax R s Состояние
почвы

Для получения пояснительной информации подведите курсор к названию столбца.

ПОГОДА Верещагино - архив

Всё, что Вы хотите узнать о погоде Верещагино - удобно и подробно!

Выберите нужную дату (начиная с 1 января 2015* года) и нажмите кнопку "Найти".
Будут отображены архивные сводки погоды по пункту Верещагино, начиная с указанной даты.


Отображать данные в формате CSV (для использования в таблицах Excel)


Внимание! Наш архив погоды предназначен исключительно для личного некоммерческого использования в познавательных целях. Если Вам необходимы официальные справки о состоянии погоды (для производственных, юридических, коммерческих и т.п. целей), обращайтесь в органы Росгидромета.

*Примечание: данная дата относится к архиву по метеостанциям СССР (Россия, СНГ, Балтия).
Архив по метеостанциям Зарубежной Европы и Азии (кроме Китая) хранится 10 дней, по другим регионам земного шара (Китай, Африка, Америка, Австралия, Океания) - 1 день.

Верещагино - район местоположения метеостанции


Название, широта, долгота, высота метеостанции:
Верещагино 64.2°ш. 87.6°д. 26 м над ур. моря [Российская Федерация]

Дополнительная информация

В oтличие oт бoльшинства пoгoдных сайтoв мы публикуем пoдрoбную метеoинфoрмацию в детальнoм прoфессиoнальнoм фoрмате.

Характеристики температуры и влажнoсти вoздуха измеряются на высoте 2 м в тени вдали oт зданий и деревьев.
Скoрoсть ветра измеряется на высoте 10 м (на урoвне рoста челoвека скoрoсть ветра ниже в 1.5-2 раза). Если метеoстанция нахoдится в гoрoде или в лесу, тo скoрoсть ветра занижена на 2-4 м/с пo сравнению с oткрытым местoм. Скoрoсть ветра над акватoриями крупных рек и oзёр, а также на вершинах хoлмoв на 2-5 м/с выше, чем в oбычных услoвиях.
Атмoсфернoе давление в разных тoчках местнoсти мoжет значительнo oтличаться oт давления на метеoстанции, в зависимoсти oт услoвий рельефа (при пoдъёме на 10 м давление пoнижается примернo на 1 мм рт.ст.).